Regional Weather Roundup
Issued by NWS

Home | Current Version | Previous Version | Graphics & Text | Print | Product List | Glossary On
Versions: 1 2 3 4 5 6 7 8 9 10 11 12 13 14 15 16 17 18 19 20 21 22 23 24 25 26 27 28 29 30 31 32 33 34 35 36 37 38 39 40 41 42 43 44 45 46 47 48 49 50
000
ASUS45 KBOU 070407
RWRCO

WEATHER ROUNDUP FOR COLORADO
NATIONAL WEATHER SERVICE DENVER/BOULDER CO
900 PM MST FRI MAR 06 2015

NOTE: "FAIR" INDICATES FEW OR NO CLOUDS BELOW 12000 FEET WITH NO
SIGNIFICANT WEATHER AND/OR OBSTRUCTIONS TO VISIBILITY.

COZ001>005-013-030-031-070500-
...NORTHWEST COLORADO...

CITY           SKY/WX    TMP DP  RH WIND       PRES   REMARKS
CRAIG          CLEAR     28  20  71 CALM      30.39R
HAYDEN         PTCLDY    30  12  47 E9        30.39R WCI  22
MEEKER         CLEAR     31  21  66 E3        30.38R
MOUNT WERNER   NOT AVBL
STEAMBOAT SPGS PTCLDY    26  15  62 CALM      30.40R
WALDEN         CLEAR     18   7  62 SE8       30.38R WCI   7
$$

COZ006>008-011-070500-
...WEST CENTRAL VALLEYS...

CITY           SKY/WX    TMP DP  RH WIND       PRES   REMARKS
GRAND JUNCTION CLEAR     36  22  56 SE3       30.33R
MONTROSE       CLEAR     34  23  64 SE12      30.38R WCI  25
EAGLE          CLEAR     32  25  74 E6        30.40R WCI  26
RIFLE          PTCLDY    33  23  66 SE7       30.37R WCI  27
DELTA          CLEAR     36  25  62 CALM      30.37R
NUCLA          CLEAR     34  23  64 E7        30.37S WCI  28
$$

COZ017>023-064>068-070500-
...SOUTHWEST COLORADO...

CITY           SKY/WX    TMP DP  RH WIND       PRES   REMARKS
DURANGO        CLEAR     32  21  64 N5        30.33R WCI  27
CORTEZ         CLEAR     32  26  78 E8        30.33R WCI  25
PAGOSA SPRINGS CLEAR     25  15  67 CALM      30.36R
TELLURIDE      PTCLDY    31  12  46 SE7       30.40S WCI  24
WOLF CREEK PAS CLEAR     23   3  42 NE5       30.46S WCI  17
$$

COZ009-010-012-014-032>034-037-058>063-070500-
...CENTRAL COLORADO...

CITY           SKY/WX    TMP DP  RH WIND       PRES   REMARKS
ASPEN          PTCLDY    27  14  58 S7        30.40R WCI  19
BUENA VISTA    CLEAR     32  13  45 NW10      30.36R WCI  24
COPPER MTN     CLEAR     21   9  58 SW5       30.44R WCI  15
BERTHOUD PASS  NOT AVBL
COTTONWOOD PAS CLEAR     34   5  29 W12G20    30.38R WCI  25
GUNNISON       PTCLDY    18   5  57 CALM      30.44R
KREMMLING      PTCLDY    23  18  80 CALM      30.41S
LEADVILLE      PTCLDY    18   6  59 NE8       30.39R WCI   8
SALIDA         CLEAR     37  13  38 W3        30.42R
SUNLIGHT       PTCLDY    27  12  54 CALM        N/A
WILKERSON PASS PTCLDY    27   5  39 W5        30.42R WCI  21
$$

COZ069>075-070500-
...SAN LUIS VALLEY/SANGRE DE CRISTO MOUNTAINS...

CITY           SKY/WX    TMP DP  RH WIND       PRES   REMARKS
ALAMOSA        CLEAR     26  19  74 N3        30.36R
LA VETA PASS   CLEAR     28   1  31 S8        30.37R WCI  20
SAGUACHE       CLEAR     30  18  59 N10       30.37S WCI  21
$$

COZ035-036-038>040-070500-
...NORTHERN COLORADO FRONT RANGE...

CITY           SKY/WX    TMP DP  RH WIND       PRES   REMARKS
DENVER INTL AP CLEAR     34  23  64 SW5       30.27R WCI  30
DMNS CITY PARK   N/A     40  21  45 S5        30.27R
AURORA         NOT AVBL
FRONT RANGE AP NOT AVBL
ERIE MUNI ARPT CLEAR     30  24  78 CALM      30.27R
BOULDER MUN AP CLEAR     36  23  60 NW5       30.27R
CENTENNIAL     CLEAR     35  22  58 SW5       30.27R WCI  31
BROOMFIELD     CLEAR     41  18  38 CALM      30.27R
FORT COLLINS   CLEAR     37  19  48 N3        30.29R
LONGMONT       CLEAR     35  22  59 CALM      30.30R
$$

COZ041-046-047-076>085-087-088-070500-
...PIKES PEAK/PALMER DIVIDE AND SOUTHERN FOOTHILLS...

CITY           SKY/WX    TMP DP  RH WIND       PRES   REMARKS
COLO. SPRINGS  CLEAR     31  21  66 N5        30.30R WCI  26
A. F. ACADEMY  CLEAR     28  20  73 N9        30.30R WCI  19
ELLICOTT       NOT AVBL
FALCON         CLEAR     29  19  63 N3        30.32R
FORT CARSON    CLEAR     33  23  66 N9        30.28R WCI  25
LIMON          CLEAR     23  19  85 N5        30.29R WCI  17
MONUMENT HILL  PTCLDY    30  19  64 S8        30.29R WCI  23
TRINIDAD       CLEAR     33  27  78 W8        30.27R WCI  26
$$

COZ042>045-048>051-090-091-070500-
...NORTHEAST COLORADO...

CITY           SKY/WX    TMP DP  RH WIND       PRES   REMARKS
GREELEY ARPT   CLEAR     30  21  69 CALM      30.26R
AKRON          CLEAR     34  19  54 N8        30.27R WCI  27
BURLINGTON     CLEAR     32  24  72 W9        30.27R WCI  24
WRAY           CLEAR     32  21  63 SW5       30.25R WCI  28
STERLING       CLEAR     32  21  64 W5        30.25R WCI  27
HOLYOKE        CLEAR     34  19  55 W9        30.25R WCI  26
FORT MORGAN    CLEAR     41  17  38 N3        30.28R
$$

COZ086-089-092>099-070500-
...SOUTHEAST COLORADO...

CITY           SKY/WX    TMP DP  RH WIND       PRES   REMARKS
PUEBLO         CLEAR     37  26  64 CALM      30.26R
LA JUNTA       CLEAR     39  27  62 NE5       30.25R
LAMAR          CLEAR     36  29  75 E7        30.24R
SPRINGFIELD      N/A     34  25  69 SW6       30.26R WCI  29
$$



USA.gov is the U.S. government's official web portal to all federal, state and local government web resources and services.